Weather History for Charlottetown, PE

Change the Weather History Date:

Monday, February 11, 2013

  Actual Average Record
Temperature  
Mean Temperature 18 °F -  
Max Temperature 26 °F 29 °F 41 °F (2002)
Min Temperature 10 °F 13 °F 0 °F (2014)
Degree Days  
Heating Degree Days 47    
Moisture  
Dew Point 12 °F    
Average Humidity 69    
Maximum Humidity 100    
Minimum Humidity 38    
Precipitation  
Precipitation 0.08 in 0.12 in - ()
Sea Level Pressure  
Sea Level Pressure 30.11 in    
Wind  
Wind Speed 8 mph ()    
Max Wind Speed 15 mph    
Max Gust Speed 18 mph    
Visibility 13.1 miles    
Events Snow    
Averages and records for this station are not official NWS values.
T = Trace of Precipitation, MM = Missing Value Source: Averaged Metar Reports

Daily Weather History Graph

Daily Weather History Graph

Search for Another Location

Airport:

Trip Planner

Search our weather history database for the weather conditions in past years. The results will help you decide how hot, cold, wet, or windy it might be!

Date:

Astronomy

Feb. 11, 2013 Rise Set
Actual Time 7:21 AM AST 5:32 PM AST
Civil Twilight 6:50 AM AST 6:03 PM AST
Nautical Twilight 6:15 AM AST 6:39 PM AST
Astronomical Twilight 5:40 AM AST 7:14 PM AST
Moon 7:35 AM AST (2/11) 7:34 PM AST (2/11)
Length of Visible Light 11h 13m
Length of Day
10h 11m
New Moon, 2% of the Moon is Illuminated
Feb 11
New Moon
Feb 17
First Quarter
Feb 25
Full
Mar 4
Last Quarter
Mar 11
New

Hourly Weather History & Observations

Time (AST) Temp. Windchill Dew Point Humidity Pressure Visibility Wind Dir Wind Speed Gust Speed Precip Events Conditions
12:00 AM 19.4 °F 8.6 °F 12.2 °F 74% 30.15 in 15.0 mi NW 9.2 mph - N/A   Clear
1:00 AM 19.4 °F 8.6 °F 12.2 °F 74% 30.16 in 15.0 mi NW 9.2 mph - N/A   Clear
2:00 AM 18 °F - 12 °F 68% 30.17 in 15 mi NW 9.2 mph - -  
2:00 AM 17.6 °F 5.7 °F 12.2 °F 79% 30.17 in 15.0 mi NW 10.4 mph - N/A   Clear
3:00 AM 15.8 °F 5.1 °F 10.4 °F 79% 30.18 in 15.0 mi NW 8.1 mph - N/A   Clear
4:00 AM 15.8 °F 5.1 °F 10.4 °F 79% 30.18 in 15.0 mi WNW 8.1 mph - N/A   Clear
5:00 AM 14.0 °F 3.9 °F 8.6 °F 79% 30.16 in 15.0 mi WNW 6.9 mph - N/A   Clear
6:00 AM 12.2 °F 1.7 °F 6.8 °F 79% 30.18 in 15.0 mi WSW 6.9 mph - N/A   Clear
7:00 AM 12.2 °F 0.7 °F 6.8 °F 79% 30.20 in 15.0 mi West 8.1 mph - N/A   Clear
8:00 AM 11 °F - 6 °F 70% 30.23 in 15 mi WSW 5.8 mph - -  
8:00 AM 10.4 °F 0.8 °F 5.0 °F 79% 30.23 in 15.0 mi SW 5.8 mph - N/A   Clear
9:00 AM 14.0 °F 2.9 °F 6.8 °F 73% 30.24 in 15.0 mi WSW 8.1 mph - N/A   Clear
10:00 AM 19.4 °F 11.5 °F 8.6 °F 63% 30.23 in 15.0 mi West 5.8 mph - N/A   Partly Cloudy
11:00 AM 21.2 °F 14.9 °F 8.6 °F 58% 30.22 in 15.0 mi West 4.6 mph - N/A   Scattered Clouds
12:00 PM 24.8 °F 19.1 °F 10.4 °F 54% 30.19 in 15.0 mi SSE 4.6 mph - N/A   Scattered Clouds
1:00 PM 26.6 °F 19.1 °F 12.2 °F 55% 30.17 in 15.0 mi SSW 6.9 mph - N/A   Mostly Cloudy
2:00 PM 26 °F - 11 °F 38% 30.14 in 15 mi South 6.9 mph - -   Clear
2:00 PM 26.6 °F 17.5 °F 10.4 °F 51% 30.14 in 15.0 mi SSW 9.2 mph - N/A   Mostly Cloudy
3:00 PM 24.8 °F 16.9 °F 10.4 °F 54% 30.12 in 15.0 mi South 6.9 mph - N/A   Mostly Cloudy
4:00 PM 23.0 °F 13.9 °F 12.2 °F 63% 30.09 in 15.0 mi South 8.1 mph - N/A   Overcast
5:00 PM 23.0 °F 15.8 °F 10.4 °F 59% 30.07 in 15.0 mi SSE 5.8 mph - N/A   Overcast
7:00 PM 23.0 °F 14.7 °F 8.6 °F 54% 30.04 in 15.0 mi SSE 6.9 mph - N/A   Overcast
8:00 PM 24 °F - 12 °F 46% 30.02 in 15 mi SE 9.2 mph - -  
8:00 PM 24.8 °F 16.1 °F 12.2 °F 59% 30.02 in 15.0 mi SSE 8.1 mph - N/A   Unknown
9:00 PM 24.8 °F 15.3 °F 15.8 °F 69% 29.99 in 15.0 mi SSE 9.2 mph - N/A   Overcast
9:43 PM 26.6 °F 15.7 °F 15.8 °F 64% 29.98 in 15.0 mi SSE 12.7 mph - N/A Snow Light Snow
9:50 PM 26.6 °F 14.7 °F 17.6 °F 69% 29.98 in 2.0 mi SSE 15.0 mph - N/A Snow Light Snow
10:00 PM 24.8 °F 14.6 °F 19.4 °F 80% 29.96 in 10.0 mi SSE 10.4 mph 18.4 mph N/A Snow Light Snow
10:41 PM 24.8 °F 12.4 °F 23.0 °F 93% 29.91 in 2.0 mi SSE 15.0 mph - N/A Snow Light Snow
11:00 PM 24.8 °F 14.0 °F 24.8 °F 100% 29.89 in 1.5 mi SE 11.5 mph - N/A Snow Light Snow
11:33 PM 26.6 °F 15.2 °F 24.8 °F 93% 29.86 in 1.0 mi SE 13.8 mph - N/A Snow Light Snow